Weather in Leninkent

Russia / Republic of Dagestan     42°29′03″N   47°45′12″E
В апреле 2022 года жителям России запретили посещать сайт meteo.paraplan.net по решению Генеральной прокуратуры. Аудитория сайта уменьшилась в 10 раз. Владельцы сайта не видят смысла в поддержке погодного сервера в таких условиях. Сайт будет закрыт в октябре.
temp.,
°C
wind,
m/s
gust,
m/s
humid.,
%
clouds,
%
prec.,
mm/h
press.,
hPa
HPBL,
m
4 october, tue
tue400:00+18e018751 0.1 101676
03:00+17sse238878 0.3 1015119
06:00+16sse459329 0.0 1014105
09:00+19se567968 0.0 1014695
12:00+23ese776487 0.0 1013848
15:00+21ese776424 0.0 1014641
18:00+17ese22789 0.0 101584
21:00+17w01822 0.0 101722
5 october, wed
wed500:00+17nw34800 0.0 101750
03:00+17nw44840 0.0 101874
06:00+16nw22860 0.0 101933
09:00+21nne12660 0.0 1019448
12:00+23ene32560 0.0 1018788
15:00+22ne33600 0.0 1019657
18:00+20nnw126885 0.0 102126
21:00+19nw3359100 0.0 102238
6 october, thu
thu600:00+18nw336536 0.0 102357
03:00+17nnw347487 0.0 1023100
06:00+16nnw348088 0.0 1024134
09:00+17n3471100 0.0 1024581
12:00+19n546469 0.0 1023870
15:00+17n5570100 0.0 1023899
18:00+16nnw5679100 0.1 1024691
21:00+15nnw4677100 0.2 1025509
7 october, fri
fri700:00+15n2377100 0.0 1025313
03:00+14nnw238185 0.0 1025276
06:00+14n128077 0.0 1026201
09:00+16nne227467 0.0 1026606
12:00+16ne3275100 0.0 1025664
15:00+15ene2281100 0.1 1024526
18:00+15ese2286100 0.1 1025438
21:00+14se2386100 0.1 1025324
8 october, sat
sat800:00+15se3586100 0.0 1024550
03:00+15se3682100 0.1 1024653
06:00+15se4781100 0.1 1023722
09:00+16se687376 0.1 1023954
12:00+18se9106075 0.1 10211311
15:00+17se9106684 0.1 10191073
18:00+16se7107436 0.0 1019673
21:00+14s468421 0.0 1019182